Location: Alafon
(8.4500°N, 4.2333°E)
Time: 20:43:55
(UTC+00:00)

Vanguard 2 - Pass Details

Date: 06 August 2021
Orbit: 553 x 2937 km, 32.9° (Epoch: 27 September)

Event Time Altitude Azimuth Distance (km) Brightness Sun altitude
Rises 23:29:27 0° 241° (WSW) 4,948 - -64.7°
Reaches altitude 10° 23:33:24 10° 244° (WSW) 3,556 - -64.8°
Maximum altitude 23:41:41 64° 324° (NW) 1,059 - -65.1°
Drops below altitude 10° 23:46:46 10° 46° (NE) 2,228 - -65.1°
Sets 23:48:46 0° 50° (NE) 2,992 - -65.1°
